[[{"header":{"parameterUnit":"m.s-1","parameterCategory":1,"la1":30.2991,"la2":30.254,"lo1":-89.0895,"lo2":-89.0444,"dx":0.0017,"dy":0.0017,"nx":28,"ny":28,"refTime":"2022-11-05T21:00:00:Z","depth":0,"parameterNumber":2,"parameterNumberName":"U-component_of_WINDS"},"data":[0,0,0,0,0,0,0,0,0,0,0,0,0,0,0,0,0,0,0,0,0,0,0,0,0,0,0,0,0,0,0,0,0,0,0,0,0,0,0,0,0,0,0,0,0,0,0,0,0,0,0,0,0,0,0,0,0,0,0.3035,0.3035,0,0.3041,0.3041,0.3041,0.305,0.3051,0.3051,0.3051,0.3056,0.3056,0.3056,0,0,0,0,0,0,0,0,0,0,0,0,0,0.3031,0.3031,0.3035,0.3035,0.3035,0.3041,0.3041,0.3041,0.305,0.3051,0.3051,0.3051,0.3056,0.3056,0.3056,0,0,0,0,0,0,0,0,0,0,0,0,0,0.3035,0.3031,0.3035,0.3041,0.3041,0.3041,0.3041,0.3041,0.305,0.3051,0.3051,0.3051,0.3056,0.3056,0.3056,0.3051,0,0,0.3056,0.3056,0,0,0,0,0,0,0,0,0.3035,0.3035,0.304,0.304,0.3041,0.3045,0.3042,0.3045,0.305,0.3047,0.3051,0.3051,0.3052,0.3053,0.3053,0.3051,0.3052,0.3056,0.3056,0.3056,0.3056,0,0,0,0,0,0,0,0.3034,0.3035,0.3038,0.304,0.3041,0.3043,0.3043,0.3042,0.3048,0.3047,0.3048,0.3048,0.3053,0.3053,0.3053,0.3052,0.3056,0.3056,0.3056,0.3056,0.3046,0.3046,0,0,0,0,0,0,0.3033,0.3034,0.3037,0.3038,0.3038,0.3042,0.3043,0.3044,0.3048,0.3049,0.3048,0.3049,0.3053,0.3053,0.3054,0.3048,0.3056,0.3056,0.3056,0.3046,0.3046,0.3046,0,0,0,0,0,0,0.3033,0.3034,0.3037,0.3036,0.3037,0.3042,0.3043,0.3044,0.3044,0.3049,0.305,0.3048,0.3053,0.3054,0.3052,0.3048,0.3056,0.3056,0.3047,0.3046,0.3046,0.3036,0,0,0,0,0,0,0.3033,0.3033,0.3032,0.3036,0.3037,0.3035,0.3042,0.3044,0.3044,0.3045,0.3049,0.305,0.3054,0.3052,0.3052,0.3048,0.3056,0.3047,0.3046,0.3046,0.3037,0.3036,0.3035,0,0,0,0,0,0.3033,0.3029,0.3032,0.3032,0.3035,0.3035,0.3035,0.304,0.3044,0.3042,0.3045,0.3049,0.3049,0.3051,0.3051,0.3048,0.3047,0.3046,0.3046,0.3038,0.3036,0.3035,0,0,0,0,0,0,0.3023,0.3029,0.3033,0.303,0.3032,0.3037,0.3034,0.3038,0.3039,0.304,0.3046,0.3047,0.3044,0.3046,0.3049,0.3043,0.3049,0.3048,0.3042,0.3041,0.3039,0.3039,0.3056,0,0,0,0,0,0.3021,0.3021,0.3026,0.3023,0.3024,0.3029,0.3029,0.3033,0.3035,0.3036,0.3039,0.3041,0.3041,0.3041,0.3041,0.3037,0.3038,0.3035,0.3034,0.3033,0.3032,0.303,0.3029,0.3044,0.3044,0.3044,0,0,0.3016,0.3019,0.3018,0.3021,0.3023,0.3023,0.303,0.3029,0.3028,0.3036,0.3034,0.3036,0.3039,0.3036,0.3035,0.3037,0.3028,0.3032,0.3031,0.3031,0.3029,0.3028,0.3027,0.3043,0.3043,0.3043,0,0,0.3006,0.3009,0.3006,0.3008,0.3011,0.3015,0.3014,0.3019,0.3021,0.3019,0.3025,0.3024,0.3024,0.3026,0.3027,0.3018,0.3022,0.3018,0.3012,0.3009,0.3008,0.3007,0.3004,0.3003,0.3017,0.3017,0.3017,0,0.2999,0.2999,0.3004,0.3003,0.3004,0.3011,0.3009,0.3011,0.3014,0.3014,0.3017,0.3018,0.302,0.3017,0.3015,0.3016,0.3015,0.3017,0.3008,0.3007,0.3006,0.3003,0.3002,0.3017,0.3017,0.3017,0.3017,0,0.299,0.299,0.2987,0.299,0.2991,0.2989,0.2995,0.2995,0.2998,0.3001,0.3,0.3003,0.3004,0.3004,0.3007,0.3001,0.3003,0.3007,0.3012,0.3004,0.3001,0.3,0.3016,0.3016,0.3017,0.3017,0,0,0.2974,0.298,0.2979,0.2981,0.2985,0.2985,0.2983,0.2985,0.2985,0.2987,0.2985,0.2986,0.2989,0.299,0.2994,0.2992,0.2985,0.2996,0.2996,0.2994,0.2979,0.2975,0.2974,0.2988,0.2987,0.2987,0.2978,0,0.2965,0.2963,0.2968,0.2965,0.2964,0.2971,0.297,0.2972,0.2975,0.2975,0.2979,0.2978,0.2984,0.2984,0.2983,0.2986,0.2982,0.2987,0.2986,0.2986,0.2985,0.2972,0.2969,0.296,0.2977,0.2977,0.2977,0,0.2953,0.2955,0.2952,0.2956,0.2956,0.2955,0.2957,0.2957,0.296,0.2962,0.2963,0.2968,0.2967,0.2972,0.297,0.2974,0.2974,0.2975,0.2975,0.2975,0.2981,0.2971,0.2957,0.2956,0.2975,0.2975,0.2975,0,0.2942,0.2943,0.2941,0.2942,0.2948,0.2947,0.2949,0.2952,0.2952,0.2954,0.2954,0.2956,0.2956,0.2957,0.2962,0.2965,0.2959,0.2965,0.2961,0.2961,0.2959,0.2959,0.2944,0.296,0.296,0.296,0.296,0,0.293,0.2928,0.2936,0.2935,0.2932,0.2939,0.2936,0.2939,0.2941,0.2941,0.2947,0.2946,0.2953,0.2952,0.2956,0.2954,0.2954,0.2956,0.2957,0.2955,0.2955,0.2955,0.2955,0.2959,0.2959,0.2959,0.296,0,0.2916,0.2922,0.292,0.2926,0.2927,0.2925,0.2929,0.2928,0.2932,0.2931,0.2931,0.2937,0.2937,0.2942,0.2943,0.2945,0.2942,0.2944,0.2941,0.2941,0.2937,0.2937,0.2921,0.292,0.2936,0.2936,0.2936,0,0.2909,0.2907,0.2913,0.2913,0.2915,0.2915,0.2916,0.2922,0.2922,0.2925,0.2924,0.2925,0.2926,0.2926,0.293,0.2931,0.2933,0.2927,0.2933,0.2931,0.2932,0.2932,0.2932,0.2926,0.2926,0.2925,0.2925,0,0.2895,0.2897,0.2898,0.29,0.2901,0.2903,0.2905,0.2904,0.2911,0.2911,0.2912,0.2912,0.2914,0.2914,0.2916,0.2918,0.2923,0.2924,0.2923,0.2921,0.2919,0.2919,0.2937,0.2924,0.2924,0.2924,0.2924,0.2924,0.2883,0.2882,0.2886,0.2887,0.2889,0.2891,0.289,0.2894,0.2894,0.2896,0.29,0.29,0.2903,0.2906,0.2907,0.2907,0.291,0.2908,0.2908,0.2907,0.2906,0.2919,0.2907,0.2907,0.2908,0.2908,0.2908,0,0.2869,0.2872,0.2873,0.2875,0.2876,0.2881,0.2883,0.2884,0.2883,0.2886,0.2887,0.2887,0.2888,0.2892,0.2894,0.2893,0.2895,0.2893,0.2893,0.2893,0.2904,0.2905,0.2891,0.2891,0.2891,0.2891,0.2891,0.2891,0.2862,0.286,0.2863,0.2863,0.2866,0.2866,0.2867,0.2868,0.2871,0.2871,0.2872,0.2875,0.2878,0.2879,0.288,0.2881,0.2881,0.2878,0.288,0.2891,0.2892,0.2894,0.2894,0.2879,0.2879,0.2869,0.2869,0.2869]},{"header":{"parameterUnit":"m.s-1","parameterCategory":1,"la1":30.2991,"la2":30.254,"lo1":-89.0895,"lo2":-89.0444,"dx":0.0017,"dy":0.0017,"nx":28,"ny":28,"refTime":"2022-11-05T21:00:00:Z","depth":0,"parameterNumber":3,"parameterNumberName":"V-component_of_WINDS"},"data":[0,0,0,0,0,0,0,0,0,0,0,0,0,0,0,0,0,0,0,0,0,0,0,0,0,0,0,0,0,0,0,0,0,0,0,0,0,0,0,0,0,0,0,0,0,0,0,0,0,0,0,0,0,0,0,0,0,0,1.6574,1.6573,0,1.6515,1.6514,1.6514,1.6478,1.6477,1.6477,1.6477,1.6416,1.6414,1.6413,0,0,0,0,0,0,0,0,0,0,0,0,0,1.6656,1.6654,1.6574,1.6573,1.6573,1.6515,1.6514,1.6514,1.6478,1.6477,1.6477,1.6477,1.6416,1.6415,1.6413,0,0,0,0,0,0,0,0,0,0,0,0,0,1.6611,1.6654,1.6574,1.6548,1.6545,1.6515,1.6514,1.6513,1.6478,1.6477,1.6477,1.6477,1.6417,1.6415,1.6413,1.6404,0,0,1.6406,1.6405,0,0,0,0,0,0,0,0,1.6613,1.6608,1.6552,1.655,1.6546,1.6503,1.6521,1.6477,1.6478,1.6503,1.6477,1.6477,1.6445,1.6441,1.643,1.6401,1.6399,1.6406,1.6404,1.6403,1.6403,0,0,0,0,0,0,0,1.6617,1.661,1.6551,1.6552,1.6548,1.6539,1.6532,1.6512,1.6476,1.6501,1.6498,1.6492,1.6443,1.6432,1.6428,1.6398,1.6406,1.6404,1.6402,1.6401,1.6361,1.6361,0,0,0,0,0,0,1.6624,1.6613,1.6553,1.6549,1.658,1.6538,1.653,1.6517,1.6476,1.647,1.6492,1.649,1.6436,1.6431,1.6426,1.6414,1.6403,1.6401,1.64,1.636,1.6361,1.6361,0,0,0,0,0,0,1.6626,1.6619,1.6555,1.658,1.6571,1.6537,1.6523,1.6516,1.6505,1.647,1.6463,1.6487,1.6436,1.6429,1.641,1.6412,1.64,1.6398,1.636,1.6361,1.6361,1.6391,0,0,0,0,0,0,1.6628,1.662,1.6616,1.658,1.657,1.654,1.6523,1.6515,1.6502,1.6499,1.6464,1.6457,1.6435,1.6414,1.6408,1.6409,1.6397,1.636,1.636,1.6361,1.639,1.6392,1.6395,0,0,0,0,0,1.6631,1.6627,1.6616,1.6609,1.6565,1.654,1.6535,1.6509,1.6502,1.6498,1.6476,1.6459,1.6413,1.6412,1.6405,1.6405,1.636,1.636,1.6361,1.6389,1.6392,1.6395,0,0,0,0,0,0,1.6663,1.6621,1.6609,1.6593,1.6571,1.6534,1.6529,1.6513,1.6492,1.649,1.6459,1.6452,1.6436,1.6419,1.6419,1.6396,1.6384,1.6383,1.6408,1.6411,1.6413,1.6418,1.6395,0,0,0,0,0,1.6668,1.6652,1.6616,1.6605,1.6595,1.6564,1.6552,1.6535,1.651,1.65,1.6476,1.6453,1.6433,1.6421,1.6401,1.6387,1.6379,1.6384,1.6386,1.6388,1.6388,1.6381,1.6383,1.6363,1.6363,1.6363,0,0,1.6678,1.6654,1.6645,1.6611,1.6591,1.6575,1.6556,1.6539,1.6527,1.6497,1.6479,1.646,1.6432,1.6416,1.6408,1.6401,1.6392,1.6389,1.6391,1.639,1.6382,1.6384,1.6385,1.6363,1.6363,1.6363,0,0,1.6689,1.6668,1.6657,1.6639,1.661,1.6589,1.6587,1.6553,1.654,1.6521,1.6499,1.6484,1.645,1.6431,1.6418,1.6423,1.6406,1.6417,1.643,1.6423,1.6425,1.6426,1.6428,1.643,1.6417,1.6417,1.6417,0,1.6705,1.668,1.6653,1.6639,1.6625,1.6598,1.6587,1.657,1.6536,1.6527,1.652,1.6478,1.6457,1.6437,1.6439,1.6428,1.6424,1.6421,1.6426,1.6427,1.6428,1.643,1.6431,1.6418,1.6418,1.6418,1.6418,0,1.6702,1.6685,1.668,1.6648,1.6634,1.6621,1.6592,1.6581,1.6565,1.6546,1.6527,1.6501,1.6476,1.6469,1.6453,1.6447,1.6444,1.6432,1.642,1.6432,1.6434,1.6434,1.642,1.642,1.6419,1.6419,0,0,1.673,1.6685,1.6684,1.667,1.6636,1.6623,1.6609,1.6585,1.6576,1.6554,1.6542,1.6515,1.6504,1.6488,1.647,1.6464,1.6471,1.6452,1.6451,1.6457,1.6464,1.6474,1.6475,1.646,1.646,1.646,1.6466,0,1.6736,1.671,1.6687,1.667,1.6654,1.6629,1.6617,1.6596,1.6577,1.6562,1.6541,1.6523,1.651,1.65,1.6493,1.6471,1.6472,1.647,1.6449,1.6448,1.6457,1.6476,1.6485,1.6493,1.6467,1.6467,1.6467,0,1.674,1.672,1.6701,1.6671,1.6663,1.6653,1.663,1.6615,1.659,1.6577,1.6561,1.6542,1.6526,1.6516,1.6495,1.6495,1.6484,1.6473,1.6472,1.647,1.6459,1.6474,1.6495,1.6496,1.6467,1.6467,1.6467,0,1.6763,1.6731,1.6716,1.6705,1.6669,1.6662,1.6647,1.6622,1.661,1.6589,1.6581,1.6559,1.6547,1.653,1.6506,1.65,1.6488,1.6475,1.6477,1.6478,1.6476,1.6476,1.6496,1.6468,1.6468,1.6468,1.6468,0,1.6773,1.6763,1.6727,1.6718,1.6706,1.6679,1.6668,1.665,1.6629,1.6616,1.6593,1.6581,1.655,1.6535,1.6515,1.6502,1.6496,1.6486,1.6481,1.6488,1.649,1.6481,1.648,1.6469,1.6469,1.6469,1.6468,0,1.6797,1.6772,1.6755,1.6722,1.6714,1.6707,1.6679,1.667,1.6651,1.6635,1.663,1.66,1.6581,1.6555,1.6528,1.6515,1.6504,1.6496,1.6513,1.651,1.6514,1.6514,1.6529,1.653,1.6502,1.6502,1.6502,0,1.6805,1.6797,1.6764,1.6754,1.674,1.6724,1.6711,1.6685,1.6673,1.6645,1.6639,1.6618,1.6601,1.6572,1.6548,1.6527,1.6519,1.6525,1.6515,1.6524,1.652,1.6521,1.6521,1.6528,1.6528,1.6529,1.6529,0,1.6822,1.6811,1.6794,1.6773,1.6759,1.6741,1.6722,1.6715,1.6684,1.6672,1.6653,1.6639,1.6612,1.6592,1.6569,1.6553,1.6536,1.6532,1.6532,1.654,1.655,1.6546,1.652,1.6532,1.6532,1.6532,1.6532,1.6531,1.6839,1.6831,1.6807,1.6789,1.6772,1.6756,1.6745,1.6726,1.6709,1.6686,1.6671,1.6653,1.6629,1.6596,1.6581,1.6567,1.656,1.6559,1.6559,1.656,1.6563,1.6552,1.6562,1.6562,1.6562,1.6562,1.6562,0,1.6856,1.684,1.6823,1.6798,1.6784,1.677,1.6748,1.6738,1.6722,1.6702,1.6685,1.6664,1.6645,1.662,1.66,1.6593,1.6585,1.6589,1.6589,1.6586,1.6569,1.6572,1.6596,1.6596,1.6596,1.6596,1.6596,1.6596,1.6863,1.6849,1.6835,1.6813,1.6797,1.6779,1.6768,1.6753,1.6737,1.6714,1.6699,1.6683,1.6661,1.6638,1.6621,1.6614,1.6608,1.6614,1.6605,1.659,1.6587,1.6584,1.6587,1.6613,1.6613,1.6623,1.6623,1.6623]}]]